Airfield :
LOGIN :

Register | Disclaimer

   EN    FR    IT 

 










Legend :    VFR   Marginal VFR   IFR   Intensive IFR   Very Intensive IFR
Visi :
Ceiling :
>= 8 km
>= 3000ft
5 to 8 km
1000 to 3000 ft
1500m to 5 km
500 to 1000 ft
800 to 1500m
200 to 500 ft
< 800m
< 200 ft
Symbols :   Thunderstorms  Fog  Heavy snow  Heavy precipitations  Wind > 20 kt
SIGMETs :     Misc.  Thunderstorms  Icing  Turbulence  Mountain Waves  Volcanic Ashes






- Airport Elevation : 628 ft
- IATA code : CMR


LFGA - Colmar-Houssen

CURRENT METAR :
  • 290530Z AUTO 20004KT CAVOK 15/14 Q1016

EXPIRED METARs :
  • 290500Z AUTO 19005KT CAVOK 14/13 Q1016
  • 290430Z AUTO 20004KT CAVOK 14/12 Q1016
  • 290400Z AUTO 21004KT CAVOK 13/12 Q1016
  • 290330Z AUTO 24004KT CAVOK 14/12 Q1016
  • 290300Z AUTO 19006KT CAVOK 13/12 Q1016

TAF N/A



MET'MAP, your aeronautical weather chart ! - Copyright ORBIFLY December 2007 - Disclaimer

ORBIFLY MET'MAP TEAM :

Programming & Development : Alexandra Zaïnal
Concept & original design : Baudouin d'Aumeries
Assistance for programming : Marc-Olivier Méhu
Technical & hardware support : Manuel Goepfert

Contact : metmap@orbifly.com




SOURCES & CREDITS :

   NOAA